Location: Chatou
(48.8898°N, 2.1586°E)
Time: 06:15:04
(UTC+00:00)

Envisat - Visible Passes

Search period start: 05 June 2023 00:00
Search period end: 15 June 2023 00:00
Orbit: 763 x 765 km, 98.2° (Epoch: 04 June)

Date Brightness Start Highest point End Pass type
(mag) Time Alt. Az. Time Alt. Az. Time Alt. Az.
05 Jun 5.0 02:54:13 10° NE 02:58:30 27° E 03:02:45 10° SSE visible
06 Jun 5.6 02:18:35 10° ENE 02:20:54 13° E 02:23:12 10° ESE visible
08 Jun 5.3 02:42:06 10° NE 02:45:56 21° E 02:49:46 10° SE visible
10 Jun 4.6 03:06:16 10° NNE 03:10:53 34° E 03:15:28 10° SSE visible
11 Jun 5.5 02:30:06 10° NE 02:33:21 17° E 02:36:35 10° SE visible
13 Jun 4.9 02:54:02 10° NE 02:58:21 27° E 03:02:37 10° SSE visible
14 Jun 5.6 02:18:22 10° ENE 02:20:44 13° E 02:23:07 10° ESE visible
